GW6470 Weather Reports


time (UTC)temp
F
wind
direction
speed
knots
gust
knots
rain 1hr
in
rain 24hr
in
rain mn
in
humidity
%
barometer
mb
20260507065223 54 34 0.0 0.0 0.00 0.00 0.00 82 1022.0
20260507064721 54 349 0.0 0.0 0.00 0.00 0.00 81 1022.0
20260507064220 54 21 0.0 0.0 0.00 0.00 0.00 81 1022.2
20260507063716 54 334 0.0 0.0 0.00 0.00 0.00 81 1022.2
20260507063213 54 319 0.0 0.0 0.00 0.00 0.00 82 1022.1
20260507062710 54 334 0.0 0.0 0.00 0.00 0.00 82 1022.1
20260507062208 54 327 0.0 0.0 0.00 0.00 0.00 82 1022.0
20260507061705 54 329 1.7 2.6 0.00 0.00 0.00 82 1022.2
20260507061203 54 15 0.0 0.0 0.00 0.00 0.00 83 1022.1
20260507060701 54 2 0.0 0.0 0.00 0.00 0.00 83 1022.1
20260507060157 54 356 0.0 0.0 0.00 0.00 0.00 82 1022.2
20260507055653 54 331 0.0 0.0 0.00 0.00 0.00 82 1022.1
20260507055149 55 19 0.0 0.0 0.00 0.00 0.00 83 1021.9
20260507054645 55 37 0.0 0.0 0.00 0.00 0.00 82 1022.1
20260507054142 55 300 0.0 0.0 0.00 0.00 0.00 81 1022.0
20260507053640 55 272 0.0 0.0 0.00 0.00 0.00 81 1022.0
20260507053138 55 4 0.0 0.0 0.00 0.00 0.00 80 1022.0
20260507052636 55 317 0.0 0.0 0.00 0.00 0.00 81 1021.9
20260507052132 55 320 0.0 0.0 0.00 0.00 0.00 82 1021.9
20260507051630 56 331 0.9 1.7 0.00 0.00 0.00 80 1022.0
20260507051126 56 5 0.0 0.0 0.00 0.00 0.00 80 1022.1
20260507050623 56 18 0.0 0.0 0.00 0.00 0.00 80 1022.0
20260507050120 56 329 0.0 0.0 0.00 0.00 0.00 80 1021.9
20260507045617 57 3 0.0 0.0 0.00 0.00 0.00 80 1022.0
20260507045114 57 337 0.0 0.0 0.00 0.00 0.00 79 1021.7
20260507044610 57 329 0.0 0.0 0.00 0.00 0.00 80 1021.7
20260507044108 57 12 0.0 0.0 0.00 0.00 0.00 78 1021.6
20260507043603 57 334 0.0 0.0 0.00 0.00 0.00 78 1022.0
20260507043101 57 327 0.0 0.0 0.00 0.00 0.00 78 1021.8
20260507042556 57 346 0.0 0.0 0.00 0.00 0.00 79 1021.8
20260507042052 58 24 0.0 0.0 0.00 0.00 0.00 78 1021.5
20260507041549 58 332 0.0 0.0 0.00 0.00 0.00 78 1021.8
20260507041046 58 330 0.0 0.0 0.00 0.00 0.00 78 1021.6
20260507040543 58 357 0.0 0.9 0.00 0.00 0.00 77 1021.4
20260507040039 58 328 0.0 0.0 0.00 0.00 0.00 78 1021.4
20260507035535 59 339 0.0 0.0 0.00 0.00 0.00 78 1021.3
20260507035031 59 305 0.0 0.0 0.00 0.00 0.00 79 1021.2
20260507034528 59 334 0.0 0.0 0.00 0.00 0.00 79 1021.4
20260507034026 59 332 0.0 0.0 0.00 0.00 0.00 79 1021.1
20260507033524 59 338 0.0 0.0 0.00 0.00 0.00 79 1021.3
20260507033021 60 12 0.0 0.0 0.00 0.00 0.00 81 1021.1
20260507032518 60 12 0.0 0.0 0.00 0.00 0.00 79 1021.1
20260507032014 60 8 0.0 0.0 0.00 0.00 0.00 79 1020.8
20260507031510 60 18 0.0 0.0 0.00 0.00 0.00 78 1020.7
20260507031008 60 357 0.0 0.0 0.00 0.00 0.00 77 1020.6
20260507030504 60 6 0.0 0.0 0.00 0.00 0.00 77 1020.8
20260507030002 60 12 0.0 0.0 0.00 0.00 0.00 78 1020.6
20260507025459 61 13 0.0 0.0 0.00 0.00 0.00 78 1020.6
20260507024956 61 7 0.0 0.0 0.00 0.00 0.00 77 1020.6
20260507024454 61 4 0.0 0.0 0.00 0.00 0.00 77 1020.4
20260507023949 61 350 0.0 0.0 0.00 0.00 0.00 78 1020.3
20260507023446 61 357 0.0 0.0 0.00 0.00 0.00 78 1020.6
20260507022944 61 11 0.0 0.0 0.00 0.00 0.00 78 1020.3
20260507022441 61 347 0.0 0.0 0.00 0.00 0.00 78 1020.2
20260507021936 62 2 0.0 0.0 0.00 0.00 0.00 77 1020.4
20260507021431 62 7 0.0 0.0 0.00 0.00 0.00 78 1020.4
20260507020930 62 1 0.0 0.0 0.00 0.00 0.00 77 1020.3
20260507020426 62 352 0.0 0.0 0.00 0.00 0.00 77 1020.3
20260507015923 62 356 0.0 0.0 0.00 0.00 0.00 76 1020.2
20260507015421 63 12 0.0 0.0 0.00 0.00 0.00 74 1020.3
20260507014918 63 1 0.0 0.0 0.00 0.00 0.00 73 1020.3
20260507014414 64 72 1.7 5.2 0.00 0.00 0.00 72 1020.2
20260507013910 64 357 0.0 0.0 0.00 0.00 0.00 71 1020.3
20260507013408 65 25 0.0 0.0 0.00 0.00 0.00 71 1020.4
20260507012906 65 13 0.0 0.0 0.00 0.00 0.00 71 1020.3
20260507012402 64 11 0.0 0.0 0.00 0.00 0.00 74 1020.4
20260507011859 64 5 0.0 0.0 0.00 0.00 0.00 75 1020.2
20260507011355 64 342 0.0 0.0 0.00 0.00 0.00 73 1020.6
20260507010855 65 346 0.0 0.0 0.00 0.00 0.00 71 1020.1
20260507010351 65 7 0.0 0.0 0.00 0.00 0.00 71 1020.3
20260507005848 66 2 0.0 0.0 0.00 0.00 0.00 71 1020.1
20260507005345 66 7 0.0 0.0 0.00 0.00 0.00 70 1020.1
20260507004842 67 9 0.0 0.0 0.00 0.00 0.00 70 1020.0
20260507004339 67 12 3.5 7.0 0.00 0.00 0.00 69 1020.2
20260507003836 67 343 0.0 0.0 0.00 0.00 0.00 71 1020.2
20260507003331 68 8 0.0 0.0 0.00 0.00 0.00 68 1020.0
20260507002826 67 70 0.0 0.0 0.00 0.00 0.00 70 1020.2
20260507002323 66 26 0.0 0.0 0.00 0.00 0.00 71 1019.8
20260507001820 66 9 0.0 0.0 0.00 0.00 0.00 72 1020.0
20260507001317 67 6 0.0 0.0 0.00 0.00 0.00 71 1019.9
20260507000814 67 356 0.0 0.0 0.00 0.00 0.00 73 1020.0
20260507000309 68 344 0.0 0.0 0.00 0.00 0.00 70 1020.0
20260506235806 68 4 0.0 0.0 0.00 0.00 0.00 70 1020.2
20260506235306 67 16 0.0 0.0 0.00 0.00 0.00 72 1019.9
20260506234759 68 14 0.0 0.0 0.00 0.00 0.00 71 1019.9
20260506234256 68 0 0.0 0.0 0.00 0.00 0.00 71 1020.0
20260506233754 70 5 0.0 0.0 0.00 0.00 0.00 69 1019.9
20260506233250 71 44 0.0 0.0 0.00 0.00 0.00 64 1019.8
20260506232747 71 142 0.0 0.0 0.00 0.00 0.00 62 1020.0
20260506232247 70 134 0.0 0.0 0.00 0.00 0.00 62 1020.0
20260506231745 71 61 0.0 0.0 0.00 0.00 0.00 62 1019.9
20260506231243 72 33 0.0 0.0 0.00 0.00 0.00 61 1019.8
20260506230740 71 14 0.0 0.0 0.00 0.00 0.00 62 1019.8
20260506230237 72 38 0.0 0.0 0.00 0.00 0.00 60 1020.1
20260506225733 71 2 0.0 0.0 0.00 0.00 0.00 64 1020.4
20260506225230 70 101 0.0 0.0 0.00 0.00 0.00 63 1020.2
20260506224726 69 111 0.0 0.0 0.00 0.00 0.00 65 1020.4
20260506224224 69 68 0.0 0.0 0.00 0.00 0.00 64 1020.2
20260506223720 69 19 0.0 0.0 0.00 0.00 0.00 64 1020.5
20260506223216 69 47 0.0 0.0 0.00 0.00 0.00 64 1020.3
20260506222713 69 3 0.0 0.0 0.00 0.00 0.00 67 1020.3
20260506222208 69 15 0.0 0.0 0.00 0.00 0.00 64 1020.2
20260506221707 70 21 0.0 0.0 0.00 0.00 0.00 62 1020.2
20260506221205 70 30 0.0 0.0 0.00 0.00 0.00 63 1020.5
20260506220701 70 38 0.0 0.0 0.00 0.00 0.00 65 1020.4
20260506220156 70 352 0.0 0.0 0.00 0.00 0.00 64 1020.5
20260506215653 68 14 0.0 0.0 0.00 0.00 0.00 64 1020.6
20260506215148 68 108 0.0 0.0 0.00 0.00 0.00 68 1020.5
20260506214646 68 83 0.0 0.0 0.00 0.00 0.00 67 1020.6
20260506214143 68 125 0.0 0.0 0.00 0.00 0.00 66 1020.6
20260506213641 68 304 0.0 0.0 0.00 0.00 0.00 65 1020.3
20260506213138 68 104 0.0 0.0 0.00 0.00 0.00 67 1020.4
20260506212636 68 21 0.0 0.0 0.00 0.00 0.00 68 1020.3
20260506212136 70 99 0.0 0.0 0.00 0.00 0.00 65 1020.6
20260506211632 69 64 0.0 0.0 0.00 0.00 0.00 67 1020.5
20260506211129 67 83 0.0 0.0 0.00 0.00 0.00 70 1020.7
20260506210626 68 27 0.0 0.0 0.00 0.00 0.00 68 1020.8
20260506210122 68 125 0.0 0.0 0.00 0.00 0.00 68 1020.7
20260506205619 67 109 0.0 0.0 0.00 0.00 0.00 72 1020.8
20260506205114 66 35 0.0 0.0 0.00 0.00 0.00 69 1020.9
20260506204612 68 66 0.0 0.0 0.00 0.00 0.00 69 1020.8
20260506204109 67 139 0.0 0.0 0.00 0.00 0.00 68 1020.7
20260506203607 67 55 0.0 0.0 0.00 0.00 0.00 70 1020.8
20260506203103 66 122 0.0 0.0 0.00 0.00 0.00 73 1020.7
20260506202601 67 19 0.0 0.0 0.00 0.00 0.00 70 1020.7
20260506202057 67 331 0.0 0.0 0.00 0.00 0.00 69 1020.7
20260506201555 66 108 0.0 0.0 0.00 0.00 0.00 70 1020.6
20260506201051 67 255 0.0 0.0 0.00 0.00 0.00 69 1020.8
20260506200547 67 43 0.0 0.0 0.00 0.00 0.00 69 1020.9
20260506200044 67 177 0.0 0.0 0.00 0.00 0.00 68 1021.0
20260506195541 66 57 0.0 0.0 0.00 0.00 0.00 70 1021.0
20260506195037 66 2 0.0 0.0 0.00 0.00 0.00 72 1021.2
20260506194535 67 100 0.0 0.0 0.00 0.00 0.00 74 1021.0
20260506194031 65 3 0.0 0.0 0.00 0.00 0.00 71 1021.2
20260506193529 66 221 0.0 0.0 0.00 0.00 0.00 71 1021.2
20260506193026 64 185 0.0 0.0 0.00 0.00 0.00 73 1021.2
20260506192523 65 308 0.0 0.0 0.00 0.00 0.00 73 1021.3
20260506192018 64 232 0.0 0.0 0.00 0.00 0.00 72 1021.3
20260506191516 64 129 0.0 0.0 0.00 0.00 0.00 73 1021.1
20260506191012 64 145 0.0 0.0 0.00 0.00 0.00 73 1021.2
20260506190509 65 139 0.0 0.0 0.00 0.00 0.00 72 1021.2
20260506190006 64 200 0.0 0.0 0.00 0.00 0.00 74 1021.3
20260506185503 63 146 0.0 0.0 0.00 0.00 0.00 74 1021.1
20260506184959 65 162 0.0 0.0 0.00 0.00 0.00 72 1021.2
20260506184457 65 66 0.0 0.0 0.00 0.00 0.00 71 1021.1
20260506183954 64 259 0.0 0.0 0.00 0.00 0.00 75 1021.3
20260506183449 63 81 0.0 0.0 0.00 0.00 0.00 79 1021.2
20260506182946 62 308 0.0 0.0 0.00 0.00 0.00 76 1021.3
20260506182444 63 263 0.0 0.0 0.00 0.00 0.00 76 1021.0
20260506181941 62 228 0.0 0.0 0.00 0.00 0.00 76 1020.9
20260506181439 62 48 0.0 0.0 0.00 0.00 0.00 81 1021.1
20260506180935 63 89 0.9 1.7 0.00 0.00 0.00 76 1021.2
20260506180432 62 3 0.0 0.0 0.00 0.00 0.00 79 1021.3
20260506175929 61 249 0.0 0.0 0.00 0.00 0.00 78 1021.2
20260506175425 62 232 0.0 0.0 0.00 0.00 0.00 78 1021.3
20260506174922 61 84 0.0 0.0 0.00 0.00 0.00 78 1021.2
20260506174420 62 23 0.0 0.0 0.00 0.00 0.00 77 1021.3
20260506173917 62 265 0.0 0.0 0.00 0.00 0.00 77 1021.2
20260506173414 61 308 0.0 0.0 0.00 0.00 0.00 79 1021.3
20260506172911 61 52 0.0 0.0 0.00 0.00 0.00 79 1021.3
20260506172407 61 27 0.0 0.0 0.00 0.00 0.00 78 1021.1
20260506171905 61 76 0.0 0.0 0.00 0.00 0.00 79 1021.0
20260506171402 61 3 2.6 2.6 0.00 0.00 0.00 78 1021.1
20260506170900 61 21 0.0 0.9 0.00 0.00 0.00 78 1020.9
20260506170356 60 24 0.0 0.0 0.00 0.00 0.00 81 1021.2
20260506165855 59 201 0.0 0.0 0.00 0.00 0.00 82 1021.0
20260506165352 59 326 0.0 0.0 0.00 0.00 0.00 81 1021.1
20260506164848 59 285 0.0 0.0 0.00 0.00 0.00 81 1021.4
20260506164345 59 49 0.0 0.0 0.00 0.00 0.00 81 1021.3
20260506163843 59 342 0.0 0.0 0.00 0.00 0.00 82 1021.4
20260506163337 59 286 0.0 0.0 0.00 0.00 0.00 83 1021.3
20260506162833 59 29 0.0 0.0 0.00 0.00 0.00 83 1021.1
20260506162331 58 291 0.0 0.0 0.00 0.00 0.00 84 1021.4
20260506161828 59 280 0.0 0.0 0.00 0.00 0.00 83 1021.4
20260506161325 58 243 0.0 0.0 0.00 0.00 0.00 83 1021.0
20260506160824 59 259 0.0 0.0 0.00 0.00 0.00 82 1021.2
20260506160320 59 297 0.0 0.0 0.00 0.00 0.00 81 1021.0
20260506155819 59 3 0.0 0.0 0.00 0.00 0.00 82 1020.9
20260506155315 58 105 0.0 0.0 0.00 0.00 0.00 84 1020.7
20260506153427 58 286 0.0 0.0 0.00 0.00 0.00 84 1020.7
20260506152924 58 251 0.0 0.0 0.00 0.00 0.00 84 1020.6
20260506152421 57 23 0.0 0.0 0.00 0.00 0.00 84 1020.6
20260506151920 57 37 0.0 0.0 0.00 0.00 0.00 86 1020.7
20260506151416 57 62 0.0 0.0 0.00 0.00 0.00 86 1020.9
20260506150914 57 312 0.0 0.0 0.00 0.00 0.00 86 1021.1
20260506150410 56 326 0.0 0.0 0.00 0.00 0.00 88 1021.1
20260506145907 56 346 0.0 0.0 0.00 0.00 0.00 87 1021.3
20260506145403 56 292 0.0 0.0 0.00 0.00 0.00 88 1021.1
20260506144901 56 288 0.0 0.0 0.00 0.00 0.00 88 1021.3
20260506144357 56 7 0.0 0.0 0.00 0.00 0.00 89 1021.0
20260506143855 56 278 0.0 0.0 0.00 0.00 0.00 89 1021.1
20260506143352 56 34 0.0 0.0 0.00 0.00 0.00 89 1021.1
20260506142851 56 5 0.0 0.0 0.00 0.00 0.00 90 1020.9
20260506142348 56 6 0.0 0.0 0.00 0.00 0.00 90 1020.7
20260506141846 55 316 0.0 0.0 0.00 0.00 0.00 90 1020.7
20260506141344 55 349 0.0 0.0 0.00 0.00 0.00 90 1020.7
20260506140842 55 288 0.0 0.0 0.00 0.00 0.00 90 1020.5
20260506140338 55 312 0.0 0.0 0.00 0.00 0.00 90 1020.3
20260506135835 55 317 0.0 0.0 0.00 0.00 0.00 89 1020.0
20260506135332 55 326 0.0 0.0 0.00 0.00 0.00 90 1020.1
20260506134828 55 342 0.0 0.0 0.00 0.00 0.00 91 1020.3
20260506134325 55 334 0.0 0.0 0.00 0.00 0.00 91 1020.1
20260506133822 55 304 0.0 0.0 0.00 0.00 0.00 91 1020.2
20260506133319 55 299 0.0 0.0 0.00 0.00 0.00 91 1020.1
20260506132816 55 325 0.0 0.0 0.00 0.00 0.00 91 1020.0
20260506132313 55 308 0.0 0.0 0.00 0.00 0.00 91 1020.0
20260506131811 55 296 0.0 0.0 0.00 0.00 0.00 92 1020.3
20260506131306 55 297 0.0 0.0 0.00 0.00 0.00 92 1020.2
20260506130804 55 86 0.0 0.0 0.00 0.00 0.00 91 1019.9
20260506130300 55 86 0.0 0.0 0.00 0.00 0.00 91 1019.8
20260506125758 55 93 0.0 0.0 0.00 0.00 0.00 91 1019.7
20260506125256 55 93 0.0 0.0 0.00 0.00 0.00 91 1019.6
20260506124754 55 94 0.0 0.0 0.00 0.00 0.00 91 1019.7
20260506124251 55 94 0.0 0.0 0.00 0.00 0.00 91 1019.7
20260506123749 55 93 0.0 0.0 0.00 0.00 0.00 90 1019.7
20260506123247 56 93 0.0 0.0 0.00 0.00 0.00 89 1019.7
20260506122744 56 93 0.0 0.0 0.00 0.00 0.00 89 1019.6
20260506122241 56 95 0.0 0.0 0.00 0.00 0.00 88 1019.4
20260506121739 56 82 0.0 0.0 0.00 0.00 0.00 89 1019.7
20260506121235 56 78 0.0 0.0 0.00 0.00 0.00 89 1019.6
20260506120733 56 1 0.0 0.0 0.00 0.00 0.00 89 1019.6
20260506120231 56 326 0.0 0.0 0.00 0.00 0.00 89 1019.4
20260506115728 56 298 0.0 0.0 0.00 0.00 0.00 89 1019.8
20260506115226 56 291 0.0 0.0 0.00 0.00 0.00 89 1019.5
20260506114724 56 312 0.0 0.0 0.00 0.00 0.00 89 1019.6
20260506114221 56 27 0.0 0.0 0.00 0.00 0.00 88 1019.4
20260506113719 56 333 0.0 0.0 0.00 0.00 0.00 88 1019.6
20260506113216 56 356 0.0 0.0 0.00 0.00 0.00 88 1019.3
20260506112712 56 11 0.0 0.0 0.00 0.00 0.00 88 1019.4
20260506112211 56 4 0.0 0.0 0.00 0.00 0.00 88 1019.2
20260506111708 56 7 0.0 0.0 0.00 0.00 0.00 88 1019.3
20260506111206 56 8 0.0 0.0 0.00 0.00 0.00 88 1019.5
20260506110702 56 15 0.0 0.0 0.00 0.00 0.00 88 1019.3
20260506110200 56 24 0.0 0.0 0.00 0.00 0.00 89 1019.1
20260506105657 56 326 0.0 0.0 0.00 0.00 0.00 88 1019.0
20260506105153 56 6 0.0 0.0 0.00 0.00 0.00 88 1018.9
20260506104652 56 309 0.0 0.0 0.00 0.00 0.00 88 1018.8
20260506104149 56 17 0.0 0.0 0.00 0.00 0.00 88 1018.8
20260506103646 56 349 0.0 0.0 0.00 0.00 0.00 89 1018.6
20260506103143 56 303 0.0 0.0 0.00 0.00 0.00 89 1018.6
20260506102641 56 297 0.0 0.0 0.00 0.00 0.00 89 1018.5
20260506102138 56 298 0.0 0.0 0.00 0.00 0.00 90 1018.5
20260506101635 56 295 0.0 0.0 0.00 0.00 0.00 90 1018.5
20260506101131 56 306 0.0 0.0 0.00 0.00 0.00 90 1018.4
20260506100630 57 310 0.0 0.0 0.00 0.00 0.00 89 1018.3
20260506100128 57 312 0.0 0.0 0.00 0.00 0.00 89 1018.3
20260506095626 57 303 0.0 0.0 0.00 0.00 0.00 89 1018.4
20260506095122 57 295 0.0 0.0 0.00 0.00 0.00 89 1018.4
20260506094620 57 295 0.0 0.0 0.00 0.00 0.00 89 1018.2
20260506094117 57 299 0.0 0.0 0.00 0.00 0.00 89 1018.3
20260506093616 57 297 0.0 0.0 0.00 0.00 0.00 89 1018.4
20260506093113 57 308 0.0 0.0 0.00 0.00 0.00 90 1018.1
20260506092610 57 321 0.0 0.0 0.00 0.00 0.00 90 1018.0
20260506092107 57 300 0.0 0.0 0.00 0.00 0.00 90 1018.1
20260506091606 57 286 0.0 0.0 0.00 0.00 0.00 90 1018.3
20260506091103 57 301 0.0 0.0 0.00 0.00 0.00 90 1018.2
20260506090600 57 303 0.0 0.0 0.00 0.00 0.00 89 1018.0
20260506090056 57 312 0.0 0.0 0.00 0.00 0.00 89 1018.0
20260506085554 57 331 0.0 0.0 0.00 0.00 0.00 89 1017.9
20260506085050 57 317 0.0 0.0 0.00 0.00 0.00 90 1018.0
20260506084547 57 333 0.0 0.0 0.00 0.00 0.00 90 1018.1
20260506084043 57 332 0.0 0.0 0.00 0.00 0.00 89 1018.1
20260506083540 58 331 0.0 0.0 0.00 0.00 0.00 89 1018.1
20260506083038 58 310 0.0 0.0 0.00 0.00 0.00 88 1017.7
20260506082534 58 312 0.0 0.0 0.00 0.00 0.00 87 1017.9
20260506082030 58 12 0.0 0.0 0.00 0.00 0.00 87 1018.0
20260506081528 58 351 0.0 0.0 0.00 0.00 0.00 87 1018.0
20260506081025 58 25 0.0 0.0 0.00 0.00 0.00 87 1018.0
20260506080523 58 22 0.0 0.0 0.00 0.00 0.00 88 1017.9
20260506073506 58 25 0.0 0.0 0.00 0.00 0.00 89 1017.5
20260506073003 58 27 0.0 0.0 0.00 0.00 0.00 89 1017.6
20260506072500 58 28 0.0 0.0 0.00 0.00 0.00 89 1017.6
20260506071958 58 28 0.0 0.0 0.00 0.00 0.00 89 1017.6
20260506071456 58 28 0.0 0.0 0.00 0.00 0.00 89 1017.6
20260506070953 58 28 0.0 0.0 0.00 0.00 0.00 89 1017.3
20260506070450 58 28 0.0 0.0 0.00 0.00 0.00 89 1017.5